TimeMDT,TemperatureF,Dew PointF,Humidity,Sea Level PressureIn,VisibilityMPH,Wind Direction,Wind SpeedMPH,Gust SpeedMPH,PrecipitationIn,Events,Conditions,WindDirDegrees,DateUTC
12:55 AM,67.6,31.1,26,29.83,10.0,WSW,4.6,-,N/A,,Clear,240,2012-10-04 06:55:00
1:55 AM,61.0,31.3,33,29.85,10.0,East,5.8,-,N/A,,Clear,80,2012-10-04 07:55:00
2:55 AM,61.3,30.0,31,29.85,10.0,NNE,8.1,-,N/A,,Clear,20,2012-10-04 08:55:00
3:55 AM,60.4,29.7,31,29.85,10.0,NNE,8.1,-,N/A,,Clear,30,2012-10-04 09:55:00
4:55 AM,59.9,31.3,34,29.88,10.0,SE,9.2,-,N/A,,Clear,130,2012-10-04 10:55:00
5:55 AM,60.6,31.8,34,29.90,10.0,South,6.9,-,N/A,,Clear,180,2012-10-04 11:55:00
6:55 AM,51.6,32.4,48,29.95,10.0,Calm,Calm,-,N/A,,Clear,0,2012-10-04 12:55:00
7:55 AM,57.2,33.8,41,29.97,10.0,East,4.6,-,N/A,,Clear,100,2012-10-04 13:55:00
8:55 AM,66.6,32.7,28,29.97,10.0,South,4.6,-,N/A,,Clear,180,2012-10-04 14:55:00
9:55 AM,72.3,31.8,22,29.98,10.0,SSE,6.9,-,N/A,,Clear,150,2012-10-04 15:55:00
10:55 AM,78.8,31.1,18,29.97,10.0,South,8.1,-,N/A,,Clear,190,2012-10-04 16:55:00
11:55 AM,83.7,27.7,13,29.96,10.0,South,4.6,-,N/A,,Clear,180,2012-10-04 17:55:00
12:55 PM,85.3,27.7,12,29.94,10.0,Calm,Calm,-,N/A,,Clear,0,2012-10-04 18:55:00
1:55 PM,87.4,27.3,11,29.91,10.0,South,5.8,-,N/A,,Clear,180,2012-10-04 19:55:00
2:55 PM,89.2,26.6,10,29.88,10.0,South,8.1,19.6,N/A,,Clear,180,2012-10-04 20:55:00
3:55 PM,89.6,26.8,10,29.86,10.0,SSW,10.4,17.3,N/A,,Clear,200,2012-10-04 21:55:00
4:55 PM,89.8,24.4,9,29.84,10.0,SSW,12.7,-,N/A,,Clear,200,2012-10-04 22:55:00
5:55 PM,88.0,24.4,10,29.84,10.0,SSW,16.1,-,N/A,,Clear,210,2012-10-04 23:55:00
6:55 PM,82.2,27.1,13,29.89,10.0,SW,11.5,-,N/A,,Clear,220,2012-10-05 00:55:00
7:55 PM,75.9,30.6,19,29.90,10.0,SSW,5.8,-,N/A,,Clear,210,2012-10-05 01:55:00
8:55 PM,72.0,32.7,24,29.89,10.0,SE,9.2,-,N/A,,Clear,140,2012-10-05 02:55:00
9:55 PM,69.6,31.8,25,29.88,10.0,SSE,8.1,-,N/A,,Clear,150,2012-10-05 03:55:00
10:55 PM,70.7,31.1,23,29.88,10.0,SSE,6.9,-,N/A,,Clear,150,2012-10-05 04:55:00
11:55 PM,66.2,32.2,28,29.87,10.0,South,8.1,-,N/A,,Clear,170,2012-10-05 05:55:00